14-11-2023, 00:00:01,    200,    0.6,    8.9,   0.00,   0.00, 1000.6,    0.4, -999.0
14-11-2023, 00:00:11,    214,    2.0,    8.9,   0.00,   0.00, 1000.6,    0.6, -999.0
14-11-2023, 00:00:21,    267,    0.5,    8.9,   0.00,   0.00, 1000.5,    0.3, -999.0
14-11-2023, 00:00:31,    189,    0.6,    8.9,   0.00,   0.00, 1000.5,    0.5, -999.0
14-11-2023, 00:00:41,    190,    0.2,    8.9,   0.00,   0.00, 1000.5,    0.7, -999.0
14-11-2023, 00:00:51,    191,    0.2,    8.9,   0.00,   0.00, 1000.5,    0.5, -999.0
14-11-2023, 00:01:01,    220,    1.8,    8.9,   0.00,   0.00, 1000.5,    0.5, -999.0
14-11-2023, 00:01:11,    250,    1.5,    8.9,   0.00,   0.00, 1000.5,    0.3, -999.0
14-11-2023, 00:01:21,    249,    0.9,    8.9,   0.00,   0.00, 1000.6,    0.5, -999.0
14-11-2023, 00:01:31,    184,    2.4,    8.9,   0.00,   0.00, 1000.6,    0.3, -999.0
14-11-2023, 00:01:41,    202,    1.4,    8.9,   0.00,   0.00, 1000.5,    0.6, -999.0
14-11-2023, 00:01:51,    193,    0.9,    9.0,   0.00,   0.00, 1000.6,    0.5, -999.0
14-11-2023, 00:02:01,    235,    2.0,    8.9,   0.00,   0.00, 1000.6,    0.3, -999.0
14-11-2023, 00:02:11,    228,    3.5,    8.9,   0.00,   0.00, 1000.5,    0.6, -999.0
14-11-2023, 00:02:21,    200,    1.1,    8.9,   0.00,   0.00, 1000.6,    0.4, -999.0
14-11-2023, 00:02:31,    243,    0.9,    8.9,   0.00,   0.00, 1000.5,    0.6, -999.0
14-11-2023, 00:02:41,    207,    0.9,    8.9,   0.00,   0.00, 1000.6,    0.5, -999.0
14-11-2023, 00:02:51,    227,    0.2,    8.9,   0.00,   0.00, 1000.5,    0.2, -999.0
14-11-2023, 00:03:01,    235,    1.6,    9.0,   0.00,   0.00, 1000.5,    0.3, -999.0
14-11-2023, 00:03:11,    231,    0.4,    8.9,   0.00,   0.00, 1000.5,    0.6, -999.0
14-11-2023, 00:03:21,    235,    0.5,    8.9,   0.00,   0.00, 1000.5,    0.3, -999.0
14-11-2023, 00:03:31,    174,    2.1,    9.0,   0.00,   0.00, 1000.6,    0.4, -999.0
14-11-2023, 00:03:41,    180,    1.1,    9.0,   0.00,   0.00, 1000.5,    0.4, -999.0
14-11-2023, 00:03:51,    221,    2.2,    9.0,   0.00,   0.00, 1000.5,    0.4, -999.0
14-11-2023, 00:04:01,    215,    1.8,    9.0,   0.00,   0.00, 1000.6,    0.6, -999.0
14-11-2023, 00:04:10,    209,    1.3,    9.0,   0.00,   0.00, 1000.5,    0.8, -999.0
14-11-2023, 00:04:21,    225,    3.4,    9.0,   0.00,   0.00, 1000.5,    0.2, -999.0
14-11-2023, 00:04:31,    209,    2.9,    8.9,   0.00,   0.00, 1000.5,    0.5, -999.0
14-11-2023, 00:04:40,    239,    3.2,    8.9,   0.00,   0.00, 1000.5,    0.4, -999.0
14-11-2023, 00:04:50,    212,    3.2,    8.9,   0.00,   0.00, 1000.6,    0.6, -999.0
14-11-2023, 00:05:01,    246,    1.3,    9.0,   0.00,   0.00, 1000.5,    0.5, -999.0
14-11-2023, 00:05:11,    224,    2.5,    9.0,   0.00,   0.00, 1000.5,    0.4, -999.0
14-11-2023, 00:05:20,    213,    4.5,    8.9,   0.00,   0.00, 1000.5,    0.3, -999.0
14-11-2023, 00:05:31,    199,    4.4,    9.0,   0.00,   0.00, 1000.4,    0.5, -999.0
14-11-2023, 00:05:41,    226,    2.1,    9.0,   0.00,   0.00, 1000.5,    0.5, -999.0
14-11-2023, 00:05:50,    225,    0.2,    8.9,   0.00,   0.00, 1000.4,    0.5, -999.0
14-11-2023, 00:06:00,    188,    1.9,    9.0,   0.00,   0.00, 1000.5,    0.4, -999.0
14-11-2023, 00:06:11,    213,    2.4,    8.9,   0.00,   0.00, 1000.5,    0.3, -999.0
14-11-2023, 00:06:20,    203,    2.9,    9.0,   0.00,   0.00, 1000.5,    0.6, -999.0
14-11-2023, 00:06:30,    229,    0.9,    8.9,   0.00,   0.00, 1000.4,    0.4, -999.0
14-11-2023, 00:06:40,    198,    2.5,    8.9,   0.00,   0.00, 1000.4,    0.6, -999.0
14-11-2023, 00:06:50,    202,    1.6,    9.0,   0.00,   0.00, 1000.5,    0.5, -999.0
14-11-2023, 00:07:00,    240,    2.3,    8.9,   0.00,   0.00, 1000.4,    0.3, -999.0
14-11-2023, 00:07:10,    204,    1.6,    8.9,   0.00,   0.00, 1000.4,    0.6, -999.0
14-11-2023, 00:07:20,    185,    0.7,    9.0,   0.00,   0.00, 1000.4,    0.5, -999.0
14-11-2023, 00:07:30,    186,    0.3,    8.9,   0.00,   0.00, 1000.4,    0.6, -999.0
14-11-2023, 00:07:40,    221,    1.4,    8.9,   0.00,   0.00, 1000.4,    0.3, -999.0
14-11-2023, 00:07:50,    206,    2.0,    8.9,   0.00,   0.00, 1000.5,    0.7, -999.0
14-11-2023, 00:08:00,    237,    1.7,    8.9,   0.00,   0.00, 1000.5,    0.9, -999.0
14-11-2023, 00:08:10,    200,    0.9,    8.9,   0.00,   0.00, 1000.4,    0.2, -999.0
14-11-2023, 00:08:20,    178,    3.6,    8.9,   0.00,   0.00, 1000.5,    0.6, -999.0
14-11-2023, 00:08:30,    222,    2.1,    8.9,   0.00,   0.00, 1000.5,    0.4, -999.0
14-11-2023, 00:08:40,    207,    2.9,    8.9,   0.00,   0.00, 1000.5,    0.5, -999.0
14-11-2023, 00:08:50,    204,    2.4,    8.8,   0.00,   0.00, 1000.5,    0.5, -999.0
14-11-2023, 00:09:00,    190,    2.3,    8.9,   0.00,   0.00, 1000.5,    0.3, -999.0
14-11-2023, 00:09:10,    183,    1.4,    8.9,   0.00,   0.00, 1000.5,    0.5, -999.0
14-11-2023, 00:09:20,    183,    0.5,    8.9,   0.00,   0.00, 1000.5,    0.4, -999.0
14-11-2023, 00:09:30,    191,    1.6,    8.8,   0.00,   0.00, 1000.5,    0.4, -999.0
14-11-2023, 00:09:40,    201,    2.0,    8.9,   0.00,   0.00, 1000.5,    0.4, -999.0
14-11-2023, 00:09:50,    232,    1.7,    8.9,   0.00,   0.00, 1000.5,    0.4, -999.0
14-11-2023, 00:10:00,    194,    2.0,    8.9,   0.00,   0.00, 1000.5,    0.4, -999.0
14-11-2023, 00:10:10,    205,    1.1,    8.9,   0.00,   0.00, 1000.5,    0.7, -999.0
14-11-2023, 00:10:20,    177,    0.8,    8.9,   0.00,   0.00, 1000.6,    0.5, -999.0
14-11-2023, 00:10:30,    183,    1.0,    8.8,   0.00,   0.00, 1000.6,    0.5, -999.0
14-11-2023, 00:10:40,    212,    2.0,    8.9,   0.00,   0.00, 1000.6,    0.5, -999.0
14-11-2023, 00:10:50,    196,    3.5,    8.9,   0.00,   0.00, 1000.5,    0.6, -999.0
14-11-2023, 00:11:00,    190,    1.1,    8.8,   0.00,   0.00, 1000.5,    0.6, -999.0
14-11-2023, 00:11:09,    199,    2.7,    8.8,   0.00,   0.00, 1000.5,    0.5, -999.0
14-11-2023, 00:11:20,    199,    2.1,    8.9,   0.00,   0.00, 1000.6,    0.5, -999.0
14-11-2023, 00:11:30,    222,    3.2,    8.8,   0.00,   0.00, 1000.5,    0.5, -999.0
14-11-2023, 00:11:39,    236,    2.0,    8.9,   0.00,   0.00, 1000.6,    0.4, -999.0
14-11-2023, 00:11:49,    206,    2.5,    8.8,   0.00,   0.00, 1000.6,    0.4, -999.0
14-11-2023, 00:12:00,    213,    3.6,    8.8,   0.00,   0.00, 1000.6,    0.4, -999.0
14-11-2023, 00:12:09,    201,    3.3,    8.9,   0.00,   0.00, 1000.6,    0.4, -999.0
14-11-2023, 00:12:19,    215,    2.6,    8.8,   0.00,   0.00, 1000.6,    0.7, -999.0
14-11-2023, 00:12:30,    200,    0.8,    8.8,   0.00,   0.00, 1000.5,    0.4, -999.0
14-11-2023, 00:12:40,    226,    0.6,    8.9,   0.00,   0.00, 1000.6,    0.3, -999.0
14-11-2023, 00:12:49,    200,    1.7,    8.9,   0.00,   0.00, 1000.6,    0.5, -999.0
14-11-2023, 00:12:59,    211,    1.1,    8.8,   0.00,   0.00, 1000.6,    0.4, -999.0
14-11-2023, 00:13:10,    217,    0.2,    8.8,   0.00,   0.00, 1000.5,    0.5, -999.0
14-11-2023, 00:13:19,    210,    1.0,    8.8,   0.00,   0.00, 1000.5,    0.5, -999.0
14-11-2023, 00:13:29,    217,    2.5,    8.8,   0.00,   0.00, 1000.5,    0.5, -999.0
14-11-2023, 00:13:39,    216,    0.4,    8.8,   0.00,   0.00, 1000.5,    0.4, -999.0
14-11-2023, 00:13:49,    217,    0.5,    8.8,   0.00,   0.00, 1000.5,    0.3, -999.0
14-11-2023, 00:13:59,    216,    0.6,    8.8,   0.00,   0.00, 1000.5,    0.3, -999.0
14-11-2023, 00:14:09,    219,    0.4,    8.8,   0.00,   0.00, 1000.5,    0.5, -999.0
14-11-2023, 00:14:19,    216,    0.8,    8.7,   0.00,   0.00, 1000.6,    0.5, -999.0
14-11-2023, 00:14:29,    281,    1.1,    8.8,   0.00,   0.00, 1000.6,    0.5, -999.0
14-11-2023, 00:14:39,    247,    1.0,    8.7,   0.00,   0.00, 1000.6,    0.5, -999.0
14-11-2023, 00:14:49,    199,    1.2,    8.8,   0.00,   0.00, 1000.5,    0.4, -999.0
14-11-2023, 00:14:59,    220,    2.7,    8.8,   0.00,   0.00, 1000.5,    0.7, -999.0
14-11-2023, 00:15:09,    197,    1.8,    8.8,   0.00,   0.00, 1000.6,    0.5, -999.0
14-11-2023, 00:15:19,    200,    1.6,    8.9,   0.00,   0.00, 1000.6,    0.4, -999.0
14-11-2023, 00:15:29,    219,    2.4,    8.8,   0.00,   0.00, 1000.6,    0.5, -999.0
14-11-2023, 00:15:39,    242,    2.1,    8.7,   0.00,   0.00, 1000.6,    0.4, -999.0
14-11-2023, 00:15:49,    205,    1.9,    8.8,   0.00,   0.00, 1000.6,    0.5, -999.0
14-11-2023, 00:15:59,    201,    0.9,    8.8,   0.00,   0.00, 1000.6,    0.7, -999.0
14-11-2023, 00:16:09,    199,    0.8,    8.7,   0.00,   0.00, 1000.6,    0.4, -999.0
14-11-2023, 00:16:19,    194,    0.9,    8.8,   0.00,   0.00, 1000.6,    0.5, -999.0
14-11-2023, 00:16:29,    144,    4.1,    8.7,   0.00,   0.00, 1000.6,    0.4, -999.0
14-11-2023, 00:16:39,    206,    1.6,    8.7,   0.00,   0.00, 1000.6,    0.8, -999.0
14-11-2023, 00:16:49,    230,    2.8,    8.7,   0.00,   0.00, 1000.6,    0.4, -999.0
14-11-2023, 00:16:59,    190,    1.5,    8.7,   0.00,   0.00, 1000.6,    0.6, -999.0
14-11-2023, 00:17:09,    243,    1.8,    8.8,   0.00,   0.00, 1000.6,    0.4, -999.0
14-11-2023, 00:17:19,    235,    0.9,    8.7,   0.00,   0.00, 1000.6,    0.4, -999.0
14-11-2023, 00:17:29,    233,    1.8,    8.8,   0.00,   0.00, 1000.6,    0.5, -999.0
14-11-2023, 00:17:39,    218,    0.9,    8.6,   0.00,   0.00, 1000.6,    0.6, -999.0
14-11-2023, 00:17:49,    229,    2.2,    8.7,   0.00,   0.00, 1000.6,    0.4, -999.0
14-11-2023, 00:17:59,    232,    0.8,    8.7,   0.00,   0.00, 1000.6,    0.5, -999.0
14-11-2023, 00:18:08,    230,    0.0,    8.5,   0.00,   0.00, 1000.5,    0.4, -999.0
14-11-2023, 00:18:19,    209,    0.2,    8.6,   0.00,   0.00, 1000.6,    0.6, -999.0
14-11-2023, 00:18:29,    236,    3.5,    8.7,   0.00,   0.00, 1000.7,    0.6, -999.0
14-11-2023, 00:18:38,    199,    2.2,    8.7,   0.00,   0.00, 1000.6,    0.5, -999.0
14-11-2023, 00:18:49,    212,    2.7,    8.7,   0.00,   0.00, 1000.6,    0.3, -999.0
14-11-2023, 00:18:59,    211,    1.8,    8.7,   0.00,   0.00, 1000.7,    0.6, -999.0
14-11-2023, 00:19:09,    180,    1.3,    8.6,   0.00,   0.00, 1000.7,    0.5, -999.0
14-11-2023, 00:19:18,    210,    1.0,    8.7,   0.00,   0.00, 1000.7,    0.4, -999.0
14-11-2023, 00:19:29,    211,    1.1,    8.7,   0.00,   0.00, 1000.7,    0.4, -999.0
14-11-2023, 00:19:39,    198,    1.4,    8.7,   0.00,   0.00, 1000.6,    0.5, -999.0
14-11-2023, 00:19:48,    200,    2.5,    8.7,   0.00,   0.00, 1000.6,    0.5, -999.0
14-11-2023, 00:19:58,    199,    0.8,    8.7,   0.00,   0.00, 1000.6,    0.3, -999.0
14-11-2023, 00:20:09,    203,    1.3,    8.7,   0.00,   0.00, 1000.6,    0.6, -999.0
14-11-2023, 00:20:18,    223,    1.2,    8.7,   0.00,   0.00, 1000.6,    0.4, -999.0
14-11-2023, 00:20:28,    235,    2.5,    8.6,   0.00,   0.00, 1000.6,    0.6, -999.0
14-11-2023, 00:20:38,    222,    1.0,    8.7,   0.00,   0.00, 1000.6,    0.5, -999.0
14-11-2023, 00:20:48,    229,    0.9,    8.7,   0.00,   0.00, 1000.6,    0.4, -999.0
14-11-2023, 00:20:58,    256,    0.9,    8.6,   0.00,   0.00, 1000.6,    0.3, -999.0
14-11-2023, 00:21:08,    220,    2.0,    8.6,   0.00,   0.00, 1000.7,    0.3, -999.0
14-11-2023, 00:21:18,    249,    3.6,    8.7,   0.00,   0.00, 1000.7,    0.5, -999.0
14-11-2023, 00:21:28,    243,    3.4,    8.7,   0.00,   0.00, 1000.7,    0.5, -999.0
14-11-2023, 00:21:38,    247,    1.8,    8.6,   0.00,   0.00, 1000.7,    0.8, -999.0
14-11-2023, 00:21:48,    248,    0.2,    8.6,   0.00,   0.00, 1000.6,    0.4, -999.0
14-11-2023, 00:21:58,    247,    0.0,    8.5,   0.00,   0.00, 1000.6,    0.3, -999.0
14-11-2023, 00:22:08,    239,    0.0,    8.6,   0.00,   0.00, 1000.7,    0.2, -999.0
14-11-2023, 00:22:18,    227,    0.4,    8.6,   0.00,   0.00, 1000.7,    0.2, -999.0
14-11-2023, 00:22:28,    247,    2.8,    8.7,   0.00,   0.00, 1000.8,    0.8, -999.0
14-11-2023, 00:22:38,    233,    1.8,    8.7,   0.00,   0.00, 1000.8,    0.7, -999.0
14-11-2023, 00:22:48,    226,    1.1,    8.7,   0.00,   0.00, 1000.8,    0.5, -999.0
14-11-2023, 00:22:58,    212,    1.7,    8.6,   0.00,   0.00, 1000.8,    0.4, -999.0
14-11-2023, 00:23:08,    224,    1.1,    8.7,   0.00,   0.00, 1000.8,    0.2, -999.0
14-11-2023, 00:23:18,    260,    3.3,    8.7,   0.00,   0.00, 1000.8,    0.5, -999.0
14-11-2023, 00:23:28,    190,    1.0,    8.7,   0.00,   0.00, 1000.8,    0.7, -999.0
14-11-2023, 00:23:38,    215,    3.7,    8.7,   0.00,   0.00, 1000.9,    0.0, -999.0
14-11-2023, 00:23:48,    223,    3.7,    8.8,   0.00,   0.00, 1000.8,    0.5, -999.0
14-11-2023, 00:23:58,    250,    2.3,    8.7,   0.00,   0.00, 1000.8,    0.3, -999.0
14-11-2023, 00:24:08,    243,    4.9,    8.6,   0.00,   0.00, 1000.8,    0.4, -999.0
14-11-2023, 00:24:18,    204,    3.3,    8.7,   0.00,   0.00, 1000.8,    0.5, -999.0
14-11-2023, 00:24:28,    214,    1.4,    8.7,   0.00,   0.00, 1000.8,    0.6, -999.0
14-11-2023, 00:24:38,    194,    1.4,    8.7,   0.00,   0.00, 1000.8,    0.5, -999.0
14-11-2023, 00:24:48,    221,    2.5,    8.7,   0.00,   0.00, 1000.8,    0.5, -999.0
14-11-2023, 00:24:58,    187,    2.3,    8.6,   0.00,   0.00, 1000.9,    0.5, -999.0
14-11-2023, 00:25:08,    207,    1.2,    8.7,   0.00,   0.00, 1000.9,    0.4, -999.0
14-11-2023, 00:25:18,    206,    0.0,    8.6,   0.00,   0.00, 1000.8,    0.9, -999.0
14-11-2023, 00:25:28,    233,    0.7,    8.5,   0.00,   0.00, 1000.7,    0.6, -999.0
14-11-2023, 00:25:37,    232,    3.9,    8.6,   0.00,   0.00, 1000.8,    0.5, -999.0
14-11-2023, 00:25:48,    236,    1.8,    8.8,   0.00,   0.00, 1000.8,    0.4, -999.0
14-11-2023, 00:25:58,    251,    1.2,    8.7,   0.00,   0.00, 1000.8,    0.6, -999.0
14-11-2023, 00:26:07,    216,    1.2,    8.6,   0.00,   0.00, 1000.9,    0.5, -999.0
14-11-2023, 00:26:17,    179,    2.3,    8.7,   0.00,   0.00, 1000.9,    0.5, -999.0
14-11-2023, 00:26:28,    222,    4.3,    8.7,   0.00,   0.00, 1000.9,    0.5, -999.0
14-11-2023, 00:26:38,    206,    3.4,    8.7,   0.00,   0.00, 1000.9,    0.4, -999.0
14-11-2023, 00:26:47,    228,    2.7,    8.7,   0.00,   0.00, 1000.9,    0.5, -999.0
14-11-2023, 00:26:58,    196,    1.5,    8.7,   0.00,   0.00, 1000.9,    0.5, -999.0
14-11-2023, 00:27:08,    219,    1.3,    8.7,   0.00,   0.00, 1000.9,    0.4, -999.0
14-11-2023, 00:27:17,    167,    1.5,    8.7,   0.00,   0.00, 1000.8,    0.4, -999.0
14-11-2023, 00:27:27,    207,    1.2,    8.7,   0.00,   0.00, 1000.9,    0.7, -999.0
14-11-2023, 00:27:38,    218,    1.4,    8.7,   0.00,   0.00, 1000.9,    0.3, -999.0
14-11-2023, 00:27:47,    219,    2.6,    8.7,   0.00,   0.00, 1000.8,    0.4, -999.0
14-11-2023, 00:27:57,    228,    2.6,    8.7,   0.00,   0.00, 1000.8,    0.6, -999.0
14-11-2023, 00:28:07,    267,    2.7,    8.6,   0.00,   0.00, 1000.9,    0.4, -999.0
14-11-2023, 00:28:17,    237,    3.6,    8.6,   0.00,   0.00, 1000.9,    0.3, -999.0
14-11-2023, 00:28:27,    238,    3.6,    8.7,   0.00,   0.00, 1000.8,    0.5, -999.0
14-11-2023, 00:28:39,    241,    1.0,    8.7,   0.00,   0.00, 1000.8,    0.3, -999.0
14-11-2023, 00:28:47,    241,    0.0,    8.6,   0.00,   0.00, 1000.7,    0.7, -999.0
14-11-2023, 00:28:57,    240,    0.0,    8.6,   0.00,   0.00, 1000.7,    0.3, -999.0
14-11-2023, 00:29:07,    239,    0.0,    8.5,   0.00,   0.00, 1000.8,    0.5, -999.0
14-11-2023, 00:29:17,    239,    0.0,    8.5,   0.00,   0.00, 1000.7,    0.5, -999.0
14-11-2023, 00:29:27,    228,    0.2,    8.6,   0.00,   0.00, 1000.8,    0.3, -999.0
14-11-2023, 00:29:37,    275,    0.7,    8.7,   0.00,   0.00, 1000.8,    0.6, -999.0
14-11-2023, 00:29:47,    217,    1.5,    8.7,   0.00,   0.00, 1000.8,    0.3, -999.0
14-11-2023, 00:29:57,    220,    2.9,    8.6,   0.00,   0.00, 1000.8,    0.6, -999.0
14-11-2023, 00:30:07,    230,    1.4,    8.7,   0.00,   0.00, 1000.9,    0.4, -999.0
14-11-2023, 00:30:17,    258,    1.3,    8.7,   0.00,   0.00, 1000.8,    0.6, -999.0
14-11-2023, 00:30:27,    258,    1.1,    8.7,   0.00,   0.00, 1000.8,    0.3, -999.0
14-11-2023, 00:30:37,    187,    0.9,    8.7,   0.00,   0.00, 1000.8,    0.6, -999.0
14-11-2023, 00:30:47,    237,    0.4,    8.7,   0.00,   0.00, 1000.9,    0.3, -999.0
14-11-2023, 00:30:57,    254,    0.5,    8.7,   0.00,   0.00, 1000.8,    0.4, -999.0
14-11-2023, 00:31:07,    199,    0.2,    8.6,   0.00,   0.00, 1000.8,    0.5, -999.0
14-11-2023, 00:31:17,    248,    1.0,    8.7,   0.00,   0.00, 1000.8,    0.3, -999.0
14-11-2023, 00:31:27,    141,    3.9,    8.7,   0.00,   0.00, 1000.8,    0.8, -999.0
14-11-2023, 00:31:37,    200,    3.6,    8.6,   0.00,   0.00, 1000.8,    0.5, -999.0
14-11-2023, 00:31:47,    198,    3.5,    8.6,   0.00,   0.00, 1000.8,    0.4, -999.0
14-11-2023, 00:31:57,    208,    0.5,    8.7,   0.00,   0.00, 1000.8,    0.4, -999.0
14-11-2023, 00:32:07,    206,    0.1,    8.7,   0.00,   0.00, 1000.7,    0.5, -999.0
14-11-2023, 00:32:17,    210,    1.4,    8.7,   0.00,   0.00, 1000.8,    0.5, -999.0
14-11-2023, 00:32:27,    204,    1.3,    8.7,   0.00,   0.00, 1000.8,    0.4, -999.0
14-11-2023, 00:32:36,    264,    2.5,    8.7,   0.00,   0.00, 1000.8,    0.7, -999.0
14-11-2023, 00:32:47,    245,    0.9,    8.6,   0.00,   0.00, 1000.7,    0.4, -999.0
14-11-2023, 00:32:57,    230,    0.2,    8.7,   0.00,   0.00, 1000.7,    0.5, -999.0
14-11-2023, 00:33:06,    233,    2.1,    8.7,   0.00,   0.00, 1000.8,    0.4, -999.0
14-11-2023, 00:33:17,    212,    1.1,    8.7,   0.00,   0.00, 1000.8,    0.4, -999.0
14-11-2023, 00:33:27,    223,    0.5,    8.7,   0.00,   0.00, 1000.7,    0.6, -999.0
14-11-2023, 00:33:36,    247,    0.4,    8.7,   0.00,   0.00, 1000.8,    0.5, -999.0
14-11-2023, 00:33:46,    247,    0.2,    8.7,   0.00,   0.00, 1000.7,    0.4, -999.0
14-11-2023, 00:33:57,    240,    0.3,    8.6,   0.00,   0.00, 1000.7,    0.5, -999.0
14-11-2023, 00:34:07,    186,    0.6,    8.7,   0.00,   0.00, 1000.8,    0.5, -999.0
14-11-2023, 00:34:16,    183,    0.9,    8.7,   0.00,   0.00, 1000.7,    0.2, -999.0
14-11-2023, 00:34:26,    304,    0.5,    8.7,   0.00,   0.00, 1000.8,    0.7, -999.0
14-11-2023, 00:34:37,    290,    0.2,    8.6,   0.00,   0.00, 1000.7,    0.6, -999.0
14-11-2023, 00:34:46,    238,    2.0,    8.7,   0.00,   0.00, 1000.8,    0.5, -999.0
14-11-2023, 00:34:56,    255,    2.9,    8.8,   0.00,   0.00, 1000.8,    0.4, -999.0
14-11-2023, 00:35:06,    266,    2.1,    8.7,   0.00,   0.00, 1000.8,    0.4, -999.0
14-11-2023, 00:35:16,    234,    1.6,    8.7,   0.00,   0.00, 1000.8,    0.5, -999.0
14-11-2023, 00:35:26,    237,    1.3,    8.8,   0.00,   0.00, 1000.8,    0.6, -999.0
14-11-2023, 00:35:36,    203,    3.9,    8.8,   0.00,   0.00, 1000.8,    0.5, -999.0
14-11-2023, 00:35:46,    248,    3.4,    8.8,   0.00,   0.00, 1000.8,    0.7, -999.0
14-11-2023, 00:35:56,    268,    0.9,    8.7,   0.00,   0.00, 1000.8,    0.4, -999.0
14-11-2023, 00:36:06,    266,    0.2,    8.7,   0.00,   0.00, 1000.8,    0.3, -999.0
14-11-2023, 00:36:16,    266,    0.0,    8.7,   0.00,   0.00, 1000.7,    0.4, -999.0
14-11-2023, 00:36:26,    239,    0.2,    8.7,   0.00,   0.00, 1000.8,    0.8, -999.0
14-11-2023, 00:36:36,    206,    0.1,    8.7,   0.00,   0.00, 1000.7,    0.2, -999.0
14-11-2023, 00:36:46,    233,    0.9,    8.6,   0.00,   0.00, 1000.8,    0.2, -999.0
14-11-2023, 00:36:56,    233,    0.4,    8.7,   0.00,   0.00, 1000.7,    0.4, -999.0
14-11-2023, 00:37:06,    195,    0.3,    8.7,   0.00,   0.00, 1000.7,    0.4, -999.0
14-11-2023, 00:37:16,    213,    1.8,    8.8,   0.00,   0.00, 1000.8,    0.6, -999.0
14-11-2023, 00:37:26,    213,    3.0,    8.8,   0.00,   0.00, 1000.8,    0.5, -999.0
14-11-2023, 00:37:36,    252,    2.2,    8.8,   0.00,   0.00, 1000.8,    0.4, -999.0
14-11-2023, 00:37:46,    237,    1.4,    8.8,   0.00,   0.00, 1000.8,    0.5, -999.0
14-11-2023, 00:37:56,    239,    0.5,    8.7,   0.00,   0.00, 1000.8,    0.3, -999.0
14-11-2023, 00:38:06,    235,    0.4,    8.7,   0.00,   0.00, 1000.8,    0.7, -999.0
14-11-2023, 00:38:16,    224,    1.9,    8.7,   0.00,   0.00, 1000.9,    0.7, -999.0
14-11-2023, 00:38:26,    214,    1.9,    8.8,   0.00,   0.00, 1000.9,    0.7, -999.0
14-11-2023, 00:38:36,    267,    1.4,    8.7,   0.00,   0.00, 1000.9,    0.4, -999.0
14-11-2023, 00:38:46,    263,    4.3,    8.7,   0.00,   0.00, 1001.0,    0.3, -999.0
14-11-2023, 00:38:56,    246,    1.1,    8.8,   0.00,   0.00, 1001.0,    0.6, -999.0
14-11-2023, 00:39:06,    243,    0.9,    8.7,   0.00,   0.00, 1000.9,    0.4, -999.0
14-11-2023, 00:39:16,    205,    2.0,    8.8,   0.00,   0.00, 1001.0,    0.4, -999.0
14-11-2023, 00:39:26,    205,    0.3,    8.7,   0.00,   0.00, 1000.9,    0.4, -999.0
14-11-2023, 00:39:35,    205,    0.0,    8.6,   0.00,   0.00, 1000.8,    0.3, -999.0
14-11-2023, 00:39:46,    199,    1.1,    8.7,   0.00,   0.00, 1001.0,    0.4, -999.0
14-11-2023, 00:39:56,    179,    0.9,    8.8,   0.00,   0.00, 1001.0,    0.3, -999.0
14-11-2023, 00:40:06,    229,    2.3,    8.7,   0.00,   0.00, 1000.9,    0.6, -999.0
14-11-2023, 00:40:15,    256,    3.9,    8.7,   0.00,   0.00, 1001.0,    0.8, -999.0
14-11-2023, 00:40:26,    189,    2.4,    8.8,   0.00,   0.00, 1001.0,    0.5, -999.0
14-11-2023, 00:40:36,    211,    1.0,    8.7,   0.00,   0.00, 1001.0,    0.4, -999.0
14-11-2023, 00:40:45,    250,    1.4,    8.7,   0.00,   0.00, 1001.0,    0.4, -999.0
14-11-2023, 00:40:56,    245,    1.6,    8.7,   0.00,   0.00, 1001.0,    0.4, -999.0
14-11-2023, 00:41:06,    209,    3.1,    8.7,   0.00,   0.00, 1001.0,    0.5, -999.0
14-11-2023, 00:41:15,    205,    0.9,    8.7,   0.00,   0.00, 1001.0,    0.3, -999.0
14-11-2023, 00:41:25,    205,    0.0,    8.6,   0.00,   0.00, 1000.8,    0.4, -999.0
14-11-2023, 00:41:36,    234,    2.0,    8.7,   0.00,   0.00, 1001.0,    0.5, -999.0
14-11-2023, 00:41:45,    217,    4.4,    8.7,   0.00,   0.00, 1001.0,    0.6, -999.0
14-11-2023, 00:41:55,    188,    5.8,    8.7,   0.00,   0.00, 1001.0,    0.3, -999.0
14-11-2023, 00:42:05,    239,    5.3,    8.7,   0.00,   0.00, 1001.0,    0.5, -999.0
14-11-2023, 00:42:16,    255,    3.0,    8.7,   0.00,   0.00, 1001.0,    0.3, -999.0
14-11-2023, 00:42:25,    218,    2.9,    8.7,   0.00,   0.00, 1001.0,    0.4, -999.0
14-11-2023, 00:42:35,    266,    2.9,    8.8,   0.00,   0.00, 1001.0,    0.6, -999.0
14-11-2023, 00:42:45,    265,    1.2,    8.8,   0.00,   0.00, 1001.0,    0.5, -999.0
14-11-2023, 00:42:55,    217,    2.1,    8.7,   0.00,   0.00, 1001.0,    0.7, -999.0
14-11-2023, 00:43:05,    245,    3.7,    8.8,   0.00,   0.00, 1001.1,    0.5, -999.0
14-11-2023, 00:43:15,    222,    1.9,    8.7,   0.00,   0.00, 1001.1,    0.5, -999.0
14-11-2023, 00:43:25,    216,    5.0,    8.8,   0.00,   0.00, 1001.1,    0.3, -999.0
14-11-2023, 00:43:35,    235,    2.8,    8.8,   0.00,   0.00, 1001.1,    0.4, -999.0
14-11-2023, 00:43:45,    242,    5.3,    8.8,   0.00,   0.00, 1001.1,    0.5, -999.0
14-11-2023, 00:43:55,    257,    4.7,    8.8,   0.00,   0.00, 1001.1,    0.4, -999.0
14-11-2023, 00:44:05,    212,    3.4,    8.7,   0.00,   0.00, 1001.0,    0.4, -999.0
14-11-2023, 00:44:15,    251,    2.7,    8.8,   0.00,   0.00, 1001.0,    0.4, -999.0
14-11-2023, 00:44:25,    227,    2.4,    8.7,   0.00,   0.00, 1001.0,    0.5, -999.0
14-11-2023, 00:44:35,    232,    1.8,    8.8,   0.00,   0.00, 1001.0,    0.8, -999.0
14-11-2023, 00:44:45,    230,    3.5,    8.8,   0.00,   0.00, 1001.0,    0.6, -999.0
14-11-2023, 00:44:55,    226,    2.0,    8.8,   0.00,   0.00, 1001.0,    0.4, -999.0
14-11-2023, 00:45:05,    246,    0.4,    8.8,   0.00,   0.00, 1001.0,    0.4, -999.0
14-11-2023, 00:45:15,    263,    0.9,    8.7,   0.00,   0.00, 1001.0,    0.4, -999.0
14-11-2023, 00:45:25,    161,    1.8,    8.6,   0.00,   0.00, 1001.0,    0.5, -999.0
14-11-2023, 00:45:35,    162,    0.3,    8.7,   0.00,   0.00, 1000.9,    0.4, -999.0
14-11-2023, 00:45:45,    229,    1.0,    8.6,   0.00,   0.00, 1001.0,    0.2, -999.0
14-11-2023, 00:45:55,    237,    4.0,    8.7,   0.00,   0.00, 1001.0,    0.5, -999.0
14-11-2023, 00:46:05,    244,    4.9,    8.7,   0.00,   0.00, 1001.0,    0.4, -999.0
14-11-2023, 00:46:15,    204,    2.2,    8.7,   0.00,   0.00, 1001.0,    0.3, -999.0
14-11-2023, 00:46:25,    217,    2.9,    8.7,   0.00,   0.00, 1001.1,    0.5, -999.0
14-11-2023, 00:46:34,    249,    3.5,    8.7,   0.00,   0.00, 1001.0,    0.4, -999.0
14-11-2023, 00:46:45,    195,    3.0,    8.6,   0.00,   0.00, 1001.0,    0.6, -999.0